Wind_Speed
10 10 10 10 10 10 11 11 10 10 10 10 10 10 10 9 9 8 9 10 10 10 11 11 11 11 12 13 13 13 14 14 15 15 15 15 15 16 16 16 17 17 18
11 11 10 10 10 10 11 10 10 10 10 10 10 10 10 9 9 9 10 11 11 11 11 12 12 13 13 13 13 14 15 15 16 16 15 16 16 16 17 17 18 18 18
11 10 10 10 11 11 11 11 10 10 10 10 10 10 10 10 10 10 11 12 12 12 12 13 13 13 13 14 14 15 15 16 16 16 16 17 17 17 18 18 19 19 19
11 11 11 11 11 11 11 11 11 11 10 10 10 10 10 10 11 11 11 12 13 13 13 14 14 14 15 15 16 16 16 16 17 17 17 17 18 18 19 20 20 20 19
12 12 11 11 11 10 10 10 11 11 11 10 10 11 11 11 11 11 12 12 12 13 14 15 15 15 15 16 16 16 17 17 17 17 18 19 19 19 20 20 21 21 21
13 13 12 12 11 11 11 11 11 11 11 11 11 11 11 12 12 12 13 13 13 14 15 15 15 16 16 17 17 18 19 19 19 19 19 20 21 21 21 21 21 21 21
14 14 13 13 12 13 13 12 12 11 11 12 12 12 13 12 13 13 13 14 14 15 15 16 16 17 18 18 18 19 20 20 21 21 21 21 21 21 22 22 22 22 22
14 14 14 14 13 13 13 13 13 13 12 12 13 13 13 13 14 14 15 15 15 16 16 16 17 18 19 19 20 20 21 21 22 22 22 22 22 23 23 24 24 24 24
16 16 15 15 14 14 14 14 13 14 14 13 14 14 14 14 15 15 16 17 17 18 18 19 19 19 20 20 20 21 21 22 22 23 24 24 24 24 24 25 25 25 26
17 17 17 16 15 15 15 15 14 14 15 15 15 15 16 16 16 17 18 19 19 19 19 20 20 20 20 21 22 22 23 23 24 25 25 26 26 26 26 26 27 27 28
18 18 18 17 16 16 16 15 15 16 16 16 16 16 16 17 18 19 19 20 20 20 21 21 21 21 22 23 24 24 24 25 25 26 26 26 27 27 28 28 29 29 30
19 19 19 18 18 17 17 17 17 17 17 17 17 17 18 18 19 20 20 20 21 21 21 22 22 23 24 24 25 26 26 26 26 26 27 28 28 29 30 30 30 30 31
20 20 19 19 19 18 18 18 18 18 18 19 19 20 20 20 21 21 22 22 22 23 23 23 24 24 25 26 27 28 28 28 27 28 29 30 30 31 31 31 32 32 33
22 21 21 20 20 20 19 19 19 20 20 20 21 22 22 23 23 23 23 23 23 24 25 24 25 26 27 28 28 29 29 29 29 30 30 31 31 31 32 33 34 34 35
24 23 22 22 21 21 21 21 21 21 21 22 23 23 23 23 24 24 24 25 25 26 26 27 27 28 29 29 30 30 30 31 31 31 31 31 32 33 34 35 35 35 35
25 25 24 23 23 23 22 22 22 23 23 23 24 24 24 25 26 26 26 27 28 28 28 29 29 29 30 30 31 31 32 32 33 33 33 34 34 35 36 36 36 36 36
27 26 26 25 24 24 24 24 24 24 24 25 25 25 26 26 27 27 28 29 29 29 30 30 31 31 31 32 32 33 33 33 34 34 35 36 36 36 36 36 36 37 37
28 28 28 27 26 26 26 26 26 26 26 26 26 27 28 28 28 28 29 30 30 31 31 31 32 33 33 33 33 34 34 35 35 36 36 37 37 37 37 37 38 38 38
30 29 29 28 28 28 28 28 28 28 28 28 28 29 29 30 30 31 31 32 32 32 32 33 34 34 34 34 34 35 36 36 36 37 37 37 38 39 38 38 38 38 38
31 31 30 30 29 29 29 29 29 29 29 30 30 31 31 31 31 32 32 33 33 33 33 34 35 35 35 35 36 36 37 37 37 37 38 38 39 38 38 38 38 38 38
33 33 33 32 31 30 30 30 30 31 31 32 32 32 33 33 33 33 33 33 33 34 35 35 36 36 35 36 36 37 37 37 38 39 39 39 39 39 39 39 39 39 39
33 33 33 33 32 32 32 32 32 32 33 33 34 34 34 34 34 34 34 35 35 36 36 36 36 36 36 37 38 38 38 39 39 39 39 39 39 39 39 39 40 40 41
34 35 35 34 34 34 34 34 34 34 34 34 34 35 35 35 35 36 35 36 36 36 36 36 36 37 37 38 39 39 40 40 40 40 40 39 39 39 39 40 40 40 41
35 35 35 35 35 35 35 35 35 35 35 35 35 35 35 35 35 36 36 36 36 36 37 37 37 37 38 38 39 39 40 40 41 41 40 39 39 39 40 40 40 40 41
35 36 36 36 36 36 36 37 37 36 36 36 36 36 36 36 36 37 37 37 37 37 37 37 37 38 38 38 39 39 40 40 40 40 39 39 39 40 40 41 41 41 42
36 36 37 37 37 38 38 37 37 37 37 37 37 37 38 38 37 38 38 38 38 38 38 39 39 39 39 40 39 39 39 39 39 39 39 40 40 40 40 40 41 41 41
Wind_Direction
248 247 248 253 257 258 261 258 256 261 262 261 260 263 267 270 270 273 278 284 289 295 299 300 302 305 306 306 307 309 310 311 312 311 308 307 307 307 305 305 305 303 302
247 248 248 252 256 259 260 254 256 259 262 263 260 261 264 266 267 271 277 284 288 293 297 301 303 304 305 305 306 308 310 311 311 309 308 308 308 307 306 306 305 304 303
248 249 251 253 256 260 260 256 257 261 262 261 259 259 262 265 268 273 278 284 289 292 296 300 302 302 303 304 306 308 310 311 310 308 308 308 307 306 306 305 304 303 302
246 246 250 254 256 260 262 258 257 259 260 260 261 260 263 267 270 275 279 285 289 291 294 297 300 301 303 303 305 306 308 310 311 309 309 309 309 308 306 305 304 303 302
243 244 248 252 255 257 260 261 259 259 257 259 260 261 264 268 272 276 282 286 288 292 294 296 298 300 302 303 304 305 307 309 309 310 310 309 309 308 307 306 304 303 303
241 243 246 251 255 257 259 262 264 262 257 258 261 264 266 269 273 278 281 285 288 293 294 295 297 299 302 303 304 304 304 305 306 307 309 309 309 308 307 307 305 303 303
242 240 244 251 255 256 257 260 262 264 263 261 263 265 266 270 275 278 281 285 289 292 294 296 297 299 300 301 302 303 304 303 302 303 305 306 307 307 307 307 307 304 301
245 243 246 251 256 258 257 258 261 263 265 267 267 267 269 271 275 278 282 286 289 291 294 295 297 300 301 300 301 302 303 303 302 302 303 304 304 305 305 306 306 305 303
246 246 249 251 253 255 258 259 261 263 264 267 269 269 271 273 276 280 283 285 287 289 291 293 296 299 300 301 302 304 304 303 302 302 302 302 302 303 302 303 304 305 304
245 247 251 254 254 255 257 259 260 264 264 267 270 272 272 274 277 281 285 285 285 287 290 292 295 298 299 300 302 304 304 304 302 302 302 301 301 301 301 301 301 302 303
245 248 251 254 255 256 258 259 261 264 266 268 271 274 275 275 278 280 285 286 286 289 291 292 294 296 297 299 301 302 303 303 302 302 302 302 302 302 302 301 301 300 301
243 247 251 254 255 257 260 261 263 266 268 269 271 275 278 280 280 282 284 286 286 288 289 291 292 294 295 297 298 299 300 302 302 302 303 302 302 302 302 302 301 301 300
245 247 250 253 255 258 261 263 265 267 269 270 272 275 277 280 282 284 284 285 286 288 289 290 290 292 293 295 296 297 299 300 301 301 302 302 301 302 302 302 302 301 301
247 248 250 254 256 258 261 263 266 268 270 272 274 276 277 279 282 284 285 286 287 288 288 288 290 292 294 295 296 297 298 299 300 301 301 301 301 302 303 303 302 300 300
247 249 251 254 257 259 261 263 266 269 270 272 275 277 278 279 280 281 284 285 285 287 287 288 290 292 293 294 296 297 298 299 300 300 301 301 301 301 301 302 301 300 300
248 250 251 253 257 260 262 264 266 269 270 273 276 278 280 281 281 281 283 284 285 286 286 287 289 290 291 293 295 297 298 298 299 299 300 300 300 300 300 301 301 300 300
248 250 250 252 256 259 262 265 267 269 270 272 275 278 280 282 283 283 284 285 285 286 287 287 288 288 290 292 294 296 297 298 299 299 300 300 300 300 300 301 301 300 299
248 250 251 253 256 259 262 265 267 269 271 273 276 279 281 283 284 283 284 285 286 287 287 287 288 288 289 291 292 294 295 296 297 298 299 300 300 300 300 301 301 300 299
250 251 252 254 257 260 262 264 267 269 271 274 276 278 280 282 283 283 284 285 286 286 286 287 288 289 290 291 292 292 294 295 297 298 299 300 300 301 301 300 301 300 300
252 253 254 255 257 260 262 264 267 270 272 275 277 279 280 281 282 283 284 285 286 286 287 287 288 288 290 292 292 292 294 295 296 297 298 298 300 301 301 301 300 300 300
253 254 255 256 258 260 262 265 268 270 272 274 277 278 279 280 281 281 282 284 286 286 287 288 288 288 290 292 292 293 294 294 295 297 297 298 299 300 300 300 300 300 300
255 256 256 258 259 262 263 266 268 270 272 274 276 278 279 281 281 282 282 283 285 287 287 287 288 288 290 292 293 293 294 295 296 297 297 298 298 299 300 300 300 300 301
257 258 259 260 262 264 265 267 268 270 272 274 276 278 280 281 282 282 282 284 285 286 287 288 288 289 290 292 293 293 294 294 295 297 297 297 298 299 299 300 300 300 301
258 259 260 261 262 264 265 267 268 270 272 274 275 277 279 281 281 281 282 283 284 285 286 288 289 291 292 293 293 294 294 294 295 296 296 297 297 298 299 300 301 301 302
259 259 260 262 263 265 266 267 269 269 271 273 274 276 278 279 280 281 281 282 282 283 285 287 289 291 292 293 293 294 295 295 295 296 296 296 297 297 298 299 300 301 302
260 260 261 262 264 266 266 267 269 270 271 272 274 275 277 278 279 280 280 281 282 283 285 287 289 290 292 293 293 294 295 295 295 295 295 296 297 298 298 299 301 302 303
Height
5851 5851 5852 5852 5852 5852 5852 5852 5852 5852 5852 5852 5852 5852 5852 5852 5851 5851 5851 5851 5850 5849 5848 5847 5846 5844 5843 5841 5840 5838 5836 5834 5832 5830 5828 5826 5824 5822 5820 5818 5816 5814 5812
5848 5848 5849 5849 5849 5849 5849 5848 5849 5849 5849 5849 5849 5849 5849 5849 5849 5848 5848 5848 5847 5846 5845 5844 5842 5841 5840 5838 5836 5834 5833 5831 5829 5827 5825 5822 5820 5818 5816 5814 5812 5810 5808
5844 5845 5846 5846 5846 5846 5846 5846 5846 5846 5846 5846 5846 5846 5846 5846 5846 5846 5845 5845 5844 5843 5842 5840 5839 5838 5836 5835 5833 5831 5829 5827 5825 5823 5821 5819 5817 5815 5812 5810 5808 5806 5804
5841 5842 5843 5843 5843 5843 5843 5843 5843 5843 5843 5843 5843 5843 5843 5843 5843 5842 5842 5841 5840 5839 5838 5837 5836 5834 5833 5831 5829 5827 5825 5823 5821 5819 5817 5815 5813 5810 5808 5806 5803 5801 5799
5837 5838 5839 5839 5840 5840 5840 5839 5839 5839 5840 5840 5840 5840 5840 5840 5839 5839 5838 5838 5837 5836 5835 5833 5832 5830 5829 5827 5825 5823 5821 5819 5817 5815 5813 5811 5808 5806 5804 5801 5798 5796 5794
5834 5835 5835 5836 5836 5836 5836 5836 5836 5836 5836 5836 5836 5836 5836 5836 5836 5835 5835 5834 5833 5832 5831 5829 5828 5826 5825 5823 5821 5819 5817 5815 5813 5811 5809 5806 5804 5801 5799 5796 5793 5791 5789
5830 5831 5831 5832 5832 5833 5833 5833 5833 5833 5833 5833 5833 5833 5833 5832 5832 5832 5831 5830 5829 5828 5827 5825 5824 5822 5820 5818 5816 5814 5812 5810 5808 5806 5804 5801 5799 5796 5794 5791 5788 5785 5783
5826 5827 5827 5828 5828 5828 5829 5829 5829 5829 5829 5829 5829 5829 5828 5828 5828 5827 5827 5826 5825 5824 5822 5821 5820 5818 5816 5814 5812 5810 5807 5805 5802 5800 5798 5795 5793 5790 5788 5785 5782 5779 5776
5821 5822 5823 5823 5824 5824 5824 5824 5824 5825 5825 5825 5824 5824 5824 5824 5823 5823 5822 5821 5820 5819 5818 5816 5815 5813 5811 5809 5807 5804 5802 5799 5797 5794 5792 5789 5786 5784 5781 5778 5775 5773 5770
5816 5817 5818 5818 5819 5819 5820 5820 5820 5820 5820 5820 5820 5819 5819 5819 5818 5818 5817 5816 5815 5814 5812 5811 5809 5807 5805 5803 5801 5799 5796 5793 5790 5788 5785 5782 5779 5776 5773 5771 5768 5765 5762
5810 5811 5813 5813 5814 5814 5815 5815 5815 5815 5815 5815 5815 5814 5814 5813 5813 5812 5811 5810 5809 5808 5806 5805 5803 5801 5799 5797 5795 5792 5790 5787 5784 5781 5778 5775 5772 5769 5766 5762 5759 5756 5753
5804 5806 5807 5808 5809 5809 5809 5810 5810 5810 5810 5810 5810 5809 5808 5808 5807 5806 5805 5804 5803 5802 5800 5799 5797 5795 5793 5791 5788 5786 5783 5780 5777 5774 5771 5767 5764 5761 5757 5754 5751 5747 5744
5798 5800 5801 5802 5803 5803 5804 5804 5804 5804 5804 5804 5804 5803 5803 5802 5801 5800 5799 5798 5796 5795 5793 5792 5790 5788 5786 5784 5781 5778 5775 5772 5769 5766 5763 5760 5756 5753 5749 5745 5742 5738 5735
5792 5793 5795 5796 5797 5797 5798 5798 5798 5798 5798 5798 5797 5797 5796 5795 5794 5793 5792 5791 5790 5788 5787 5785 5783 5781 5779 5776 5774 5771 5768 5765 5761 5758 5755 5751 5748 5744 5740 5737 5733 5729 5726
5785 5787 5788 5789 5790 5791 5791 5791 5792 5792 5791 5791 5791 5790 5789 5788 5787 5786 5785 5784 5782 5781 5779 5777 5775 5773 5771 5768 5766 5763 5759 5756 5753 5750 5746 5743 5739 5735 5731 5727 5723 5719 5715
5778 5779 5781 5782 5783 5783 5784 5784 5784 5784 5784 5784 5783 5782 5781 5781 5779 5778 5777 5776 5774 5772 5771 5769 5767 5765 5763 5760 5757 5754 5751 5748 5744 5741 5737 5733 5730 5726 5722 5717 5713 5709 5705
5770 5771 5773 5774 5775 5776 5776 5777 5777 5777 5776 5776 5775 5774 5774 5772 5771 5770 5768 5767 5765 5764 5762 5760 5758 5756 5754 5751 5748 5745 5742 5738 5735 5731 5728 5724 5719 5715 5711 5707 5703 5699 5695
5761 5763 5764 5765 5766 5767 5768 5769 5769 5769 5769 5768 5768 5766 5765 5764 5763 5761 5760 5758 5756 5754 5752 5750 5748 5746 5744 5741 5739 5736 5732 5729 5725 5722 5718 5713 5709 5705 5701 5697 5693 5689 5685
5752 5754 5755 5757 5758 5759 5759 5760 5760 5760 5760 5760 5759 5758 5757 5755 5753 5752 5750 5749 5747 5745 5743 5741 5739 5736 5734 5731 5728 5725 5722 5719 5715 5712 5707 5703 5699 5695 5691 5687 5683 5678 5674
5743 5745 5746 5747 5749 5749 5750 5750 5750 5751 5750 5750 5749 5748 5747 5745 5744 5742 5740 5738 5736 5735 5732 5730 5728 5726 5723 5721 5718 5715 5712 5709 5705 5701 5697 5693 5689 5685 5680 5676 5672 5668 5664
5733 5735 5736 5738 5739 5739 5740 5740 5741 5741 5740 5740 5739 5738 5736 5735 5733 5732 5730 5728 5726 5724 5722 5720 5718 5715 5713 5710 5707 5704 5701 5698 5694 5691 5687 5683 5678 5674 5670 5666 5661 5657 5653
5723 5725 5726 5727 5728 5729 5730 5730 5730 5730 5730 5729 5728 5727 5726 5724 5723 5721 5720 5718 5716 5714 5711 5709 5707 5704 5702 5699 5696 5693 5690 5687 5683 5680 5676 5672 5668 5663 5659 5655 5651 5646 5642
5712 5714 5715 5717 5718 5718 5719 5719 5719 5719 5718 5718 5717 5716 5715 5713 5711 5710 5708 5707 5705 5702 5700 5698 5695 5693 5690 5687 5684 5681 5679 5675 5672 5668 5665 5661 5657 5653 5649 5644 5640 5636 5631
5702 5703 5704 5705 5706 5707 5707 5707 5707 5707 5707 5706 5705 5705 5703 5702 5700 5699 5697 5695 5693 5691 5689 5686 5684 5681 5679 5676 5673 5670 5667 5663 5660 5656 5653 5649 5646 5642 5638 5633 5629 5624 5619
5690 5691 5692 5693 5694 5695 5695 5695 5695 5695 5695 5694 5693 5693 5692 5690 5689 5687 5685 5684 5682 5680 5677 5675 5672 5670 5667 5664 5661 5658 5655 5652 5648 5645 5641 5638 5634 5630 5626 5622 5618 5613 5608
5678 5680 5681 5681 5682 5682 5683 5683 5683 5683 5682 5682 5681 5680 5679 5678 5677 5675 5674 5672 5670 5668 5666 5663 5661 5658 5655 5652 5649 5646 5643 5640 5636 5633 5629 5626 5622 5618 5614 5610 5606 5601 5597